Nassau, Bahamas

7:12 PM EDT on June 22, 2017 (GMT -0400)
Nassau International

Weather History for MYNN - December, 2014

Change the Weather History Date:

Thursday, December 18, 2014

  Actual Average Record
Temperature  
Mean Temperature 66 °F -  
Max Temperature 77 °F 78 °F 84 °F (2015)
Min Temperature 55 °F 63 °F 35 °F (2000)
Cooling Degree Days 1    
Growing Degree Days 16 (Base 50)    
Moisture  
Dew Point 59 °F    
Average Humidity 76    
Maximum Humidity 100    
Minimum Humidity 50    
Precipitation  
Precipitation 0.00 in 0.06 in - ()
Sea Level Pressure  
Sea Level Pressure 30.13 in    
Wind  
Wind Speed 1 mph ()    
Max Wind Speed 5 mph    
Max Gust Speed -    
Visibility 7.0 miles    
Events      
Averages and records for this station are not official NWS values.
T = Trace of Precipitation, MM = Missing Value Source: Averaged Metar Reports

Daily Weather History Graph

Daily Weather History Graph

Search for Another Location

Airport or City:

Trip Planner

Search our weather history database for the weather conditions in past years. The results will help you decide how hot, cold, wet, or windy it might be!

Date:

Astronomy

Dec. 18, 2014 Rise Set
Actual Time 6:49 AM EST 5:24 PM EST
Civil Twilight 6:23 AM EST 5:49 PM EST
Nautical Twilight 5:55 AM EST 6:17 PM EST
Astronomical Twilight 5:27 AM EST 6:45 PM EST
Moon 3:17 AM EST (12/18) 2:48 PM EST (12/18)
Length of Visible Light 11h 25m
Length of Day
10h 35m
Waning Crescent, 13% of the Moon is Illuminated
Dec 18
Waning Crescent
Dec 21
New
Dec 28
First Quarter
Jan 4
Full
Jan 13
Last Quarter

Hourly Weather History & Observations

Time (EST) Temp. Dew Point Humidity Pressure Visibility Wind Dir Wind Speed Gust Speed Precip Events Conditions
12:00 AM 62.6 °F 57.2 °F 82% 30.16 in 6.2 mi Calm Calm - N/A   Unknown
1:00 AM 60 °F 58 °F 92% 30.15 in 9 mi Calm Calm - -   Clear
1:00 AM 60.8 °F 59.0 °F 94% 30.15 in - Calm Calm - N/A   Clear
2:00 AM 62.6 °F 51.8 °F 68% 30.16 in - Calm Calm - N/A   Clear
4:00 AM 59.0 °F 57.2 °F 94% - - Calm Calm - N/A   Clear
6:00 AM 59.0 °F 55.4 °F 88% 30.15 in - Calm Calm - N/A   Clear
7:00 AM 57 °F 56 °F 97% 30.15 in 9 mi Calm Calm - -   Partly Cloudy
7:00 AM 57.2 °F 57.2 °F 100% 30.15 in 6.2 mi Calm Calm - N/A   Scattered Clouds
8:00 AM 62.6 °F 57.2 °F 82% 30.16 in 6.2 mi Calm Calm - N/A   Sandstorm
9:00 AM 71.6 °F 60.8 °F 69% - 6.2 mi NE 3.5 mph - N/A   Partly Cloudy
10:00 AM 76 °F 69 °F 72%  in 9 mi SE 2.3 mph - -   Scattered Clouds
10:00 AM 77.0 °F 68.0 °F 74% 30.18 in 6.2 mi SE 2.3 mph - N/A   Partly Cloudy
11:00 AM 75.2 °F 60.8 °F 61% 30.17 in 6.2 mi SE 2.3 mph - N/A   Partly Cloudy
12:00 PM 77.0 °F 59.0 °F 54% 30.14 in 6.2 mi SSE 3.5 mph - N/A   Partly Cloudy
2:00 PM 77.0 °F 57.2 °F 50% 30.10 in 6.2 mi ENE 3.5 mph - N/A   Scattered Clouds
3:00 PM 77.0 °F 57.2 °F 50% 30.09 in 6.2 mi ENE 4.6 mph - N/A   Mostly Cloudy
4:00 PM 76 °F 67 °F 65% 30.09 in 9 mi NE 3.5 mph - -   Scattered Clouds
4:00 PM 77.0 °F 60.8 °F 57% 30.09 in 6.2 mi NE 3.5 mph - N/A   Scattered Clouds
5:00 PM 73.4 °F 59.0 °F 61% 30.09 in 6.2 mi NE 3.5 mph - N/A   Partly Cloudy
6:00 PM 69.8 °F 60.8 °F 73% 30.10 in 6.2 mi Calm Calm - N/A   Partly Cloudy
7:00 PM 68.0 °F 62.6 °F 83% 30.10 in - Calm Calm - N/A   Clear
8:00 PM 66.2 °F 57.2 °F 73% 30.11 in - Calm Calm - N/A   Clear
9:00 PM 64.4 °F 57.2 °F 77% 30.11 in - Calm Calm - N/A   Clear
10:00 PM 63 °F 59 °F 84% 30.12 in 9 mi Calm Calm - -  
10:00 PM 62.6 °F 60.8 °F 94% 30.11 in - Calm Calm - N/A   Unknown
11:00 PM 64.4 °F 55.4 °F 73% 30.14 in - Calm Calm - N/A   Clear